EW3861 Weather Reports


time (UTC)temp
C
wind
direction
speed
KPH
gust
KPH
rain 1hr
cm
rain 24hr
cm
rain mn
cm
humidity
%
barometer
mb
20260904020015 20 297 0.0 0.0 0.00 0.00 0.00 94 1010.8
20260904014514 20 297 0.0 0.0 0.00 0.00 0.00 94 1010.8
20260904013015 20 297 0.0 0.0 0.00 0.00 0.00 93 1011.0
20260904011517 20 297 0.0 0.0 0.00 0.00 0.00 93 1011.2
20260904010033 21 297 0.0 0.0 0.00 0.00 0.00 93 1010.9
20260904004513 21 297 0.0 0.0 0.00 0.00 0.00 92 1010.9
20260904003014 21 297 0.0 0.0 0.00 0.00 0.00 92 1010.5
20260904001513 21 297 0.0 0.0 0.00 0.00 0.00 92 1010.5
20260904000012 22 297 0.0 0.0 0.00 0.00 0.00 91 1010.2
20260903234511 22 297 0.0 0.0 0.00 0.00 0.00 90 1010.4
20260903233009 22 297 0.0 0.0 0.00 0.00 0.00 90 1010.3
20260903231509 23 297 0.0 0.0 0.00 0.00 0.00 89 1010.4
20260903230010 23 297 0.0 0.0 0.00 0.00 0.00 88 1010.0
20260903224505 23 65 0.0 0.0 0.00 0.00 0.00 88 1010.2
20260903223009 23 65 0.0 0.0 0.00 0.00 0.00 88 1010.3
20260903221505 24 65 0.0 0.0 0.00 0.00 0.00 88 1010.6
20260903220004 24 65 0.0 0.0 0.00 0.00 0.00 87 1010.4
20260903214503 24 65 0.0 0.0 0.00 0.00 0.00 88 1010.4
20260903213009 24 65 0.0 0.0 0.00 0.00 0.00 87 1010.2
20260903211502 24 65 0.0 0.0 0.00 0.00 0.00 87 1010.3
20260903210001 24 65 0.0 0.0 0.00 0.00 0.00 88 1010.2
20260903204618 24 65 0.0 0.0 0.00 0.00 0.00 87 1010.3
20260903203100 25 65 0.0 0.0 0.00 0.00 0.00 85 1010.4
20260903201558 25 65 0.0 0.0 0.00 0.00 0.00 85 1010.6
20260903194555 25 65 0.0 0.0 0.00 0.00 0.00 86 1010.6
20260903193054 25 65 0.0 0.0 0.00 0.00 0.00 87 1010.7
20260903191551 24 65 0.0 0.0 0.00 0.00 0.00 87 1010.9
20260903190050 24 65 0.0 0.0 0.00 0.00 0.00 89 1011.0
20260903184549 24 194 0.0 0.0 0.00 0.00 0.00 89 1011.1
20260903183047 24 194 0.0 0.0 0.00 0.00 0.00 89 1011.1
20260903181546 24 194 0.0 0.0 0.00 0.00 0.00 88 1011.4
20260903180049 25 195 0.0 0.0 0.00 0.00 0.00 87 1011.4
20260903174545 25 195 0.0 0.0 0.00 0.00 0.00 87 1011.4
20260903173043 24 199 0.0 0.0 0.00 0.00 0.00 88 1011.4
20260903171538 23 239 0.0 0.0 0.00 0.00 0.00 93 1011.6
20260903170035 22 227 0.0 0.0 0.00 0.00 0.00 96 1011.7
20260903164530 22 225 0.0 0.0 0.00 0.00 0.00 97 1011.5
20260903163029 21 225 0.0 0.0 0.00 0.00 0.00 97 1011.4
20260903161531 21 225 0.0 0.0 0.00 0.00 0.00 98 1011.5
20260903160051 21 225 0.0 0.0 0.00 0.00 0.00 98 1011.7
20260903154523 21 225 0.0 0.0 0.00 0.00 0.00 98 1011.9
20260903153022 21 225 0.0 0.0 0.00 0.00 0.00 98 1012.2
20260903151523 21 225 0.0 0.0 0.00 0.00 0.00 98 1012.3
20260903150025 21 224 0.0 0.0 0.00 0.00 0.00 98 1012.4
20260903144514 20 224 0.0 0.0 0.00 0.00 0.00 98 1012.7
20260903143021 20 223 0.0 0.0 0.00 0.00 0.00 98 1012.8
20260903141514 20 224 0.0 0.0 0.00 0.00 0.00 98 1012.9
20260903140117 20 223 0.0 0.0 0.00 0.00 0.00 98 1013.2
20260903134531 20 222 0.0 0.0 0.00 0.00 0.00 98 1013.2
20260903133115 19 222 0.0 0.0 0.00 0.00 0.00 98 1013.3
20260903131525 18 222 0.0 0.0 0.00 0.00 0.00 98 1013.1
20260903130001 18 222 0.0 0.0 0.00 0.00 0.00 97 1013.3
20260903124554 18 222 0.0 0.0 0.00 0.00 0.00 97 1013.3
20260903123006 18 222 0.0 0.0 0.00 0.00 0.00 97 1013.5
20260903121549 18 222 0.0 0.0 0.00 0.00 0.00 97 1013.7
20260903120005 18 222 0.0 0.0 0.00 0.00 0.00 97 1013.9
20260903114553 17 222 0.0 0.0 0.00 0.00 0.00 97 1014.0
20260903113007 17 225 0.0 0.0 0.00 0.00 0.00 97 1014.1
20260903111602 17 225 0.0 0.0 0.00 0.00 0.00 97 1014.2
20260903110014 17 274 0.0 0.0 0.00 0.00 0.00 97 1014.1
20260903104612 17 274 0.0 0.0 0.00 0.00 0.00 96 1013.8
20260903103015 17 274 0.0 0.0 0.00 0.00 0.00 96 1013.7
20260903101605 16 274 0.0 0.0 0.00 0.00 0.00 96 1013.7
20260903100009 16 277 0.0 0.0 0.00 0.00 0.00 95 1013.6
20260903094610 16 277 0.0 0.0 0.00 0.00 0.00 95 1013.9
20260903093019 16 277 0.0 0.0 0.00 0.00 0.00 95 1014.0
20260903091602 16 277 0.0 0.0 0.00 0.00 0.00 94 1014.1
20260903090024 16 277 0.0 0.0 0.00 0.00 0.00 94 1014.0
20260903084630 16 277 0.0 0.0 0.00 0.00 0.00 93 1014.3
20260903083032 16 277 0.0 0.0 0.00 0.00 0.00 93 1014.9
20260903081617 16 277 0.0 0.0 0.00 0.00 0.00 93 1015.0
20260903080031 16 277 0.0 0.0 0.00 0.00 0.00 92 1014.8
20260903074633 16 277 0.0 0.0 0.00 0.00 0.00 92 1015.0
20260903073027 16 277 0.0 0.0 0.00 0.00 0.00 92 1015.2
20260903071610 16 277 0.0 0.0 0.00 0.00 0.00 91 1015.5
20260903070011 16 277 0.0 0.0 0.00 0.00 0.00 91 1015.7
20260903064554 16 277 0.0 0.0 0.00 0.00 0.00 92 1016.1
20260903063011 16 277 0.0 0.0 0.00 0.00 0.00 92 1016.2
20260903061605 16 277 0.0 0.0 0.00 0.00 0.00 92 1016.6
20260903060012 16 277 0.0 0.0 0.00 0.00 0.00 92 1016.8
20260903054613 16 277 0.0 0.0 0.00 0.00 0.00 91 1017.1
20260903053016 16 277 0.0 0.0 0.00 0.00 0.00 91 1017.2
20260903051602 16 277 0.0 0.0 0.00 0.00 0.00 91 1017.4
20260903050021 16 277 0.0 0.0 0.00 0.00 0.00 91 1017.6
20260903044610 16 277 0.0 0.0 0.00 0.00 0.00 92 1017.8
20260903043022 16 277 0.0 0.0 0.00 0.00 0.00 91 1017.6
20260903041604 16 277 0.0 0.0 0.00 0.00 0.00 92 1017.5
20260903040059 16 277 0.0 0.0 0.00 0.00 0.00 91 1017.3
20260903034601 16 277 0.0 0.0 0.00 0.00 0.00 91 1017.6
20260903033100 16 277 0.0 0.0 0.00 0.00 0.00 91 1018.0
20260903031629 16 277 0.0 0.0 0.00 0.00 0.00 91 1018.2
20260903030056 16 277 0.0 0.0 0.00 0.00 0.00 91 1018.0
20260903024556 16 277 0.0 0.0 0.00 0.00 0.00 90 1018.5
20260903023051 16 277 0.0 0.0 0.00 0.00 0.00 88 1018.6
20260903021551 16 277 0.0 0.0 0.00 0.00 0.00 88 1018.5